Time,TemperatureF,DewpointF,PressureIn,WindDirection,WindDirectionDegrees,WindSpeedMPH,WindSpeedGustMPH,Humidity,HourlyPrecipIn,Conditions,Clouds,dailyrainin,SoftwareType,DateUTC
2013-08-26 00:01:00,66.4,60.7,30.29,South,184,0.0,0.0,82,0.00,,,0.00,Wunderground v.1.15,2013-08-26 04:01:00,
2013-08-26 00:02:00,66.4,60.7,30.29,South,184,0.0,0.0,82,0.00,,,0.00,Wunderground v.1.15,2013-08-26 04:02:00,
2013-08-26 00:07:00,66.3,60.6,30.29,South,184,0.0,0.0,82,0.00,,,0.00,Wunderground v.1.15,2013-08-26 04:07:00,
2013-08-26 00:09:00,66.3,60.6,30.29,South,184,0.0,0.0,82,0.00,,,0.00,Wunderground v.1.15,2013-08-26 04:09:00,
2013-08-26 00:13:00,66.2,60.5,30.29,South,184,0.0,0.0,82,0.00,,,0.00,Wunderground v.1.15,2013-08-26 04:13:00,
2013-08-26 00:19:00,66.1,60.4,30.28,South,184,0.0,0.0,82,0.00,,,0.00,Wunderground v.1.15,2013-08-26 04:19:00,
2013-08-26 00:25:00,66.0,60.3,30.28,South,184,0.0,0.0,82,0.00,,,0.00,Wunderground v.1.15,2013-08-26 04:25:00,
2013-08-26 00:30:00,65.9,60.6,30.28,South,184,0.0,0.0,83,0.00,,,0.00,Wunderground v.1.15,2013-08-26 04:30:00,
2013-08-26 00:35:00,65.9,60.6,30.28,South,184,0.0,0.0,83,0.00,,,0.00,Wunderground v.1.15,2013-08-26 04:35:00,
2013-08-26 00:40:00,65.9,60.6,30.28,South,184,0.0,0.0,83,0.00,,,0.00,Wunderground v.1.15,2013-08-26 04:40:00,
2013-08-26 00:45:00,65.9,60.6,30.28,South,184,0.0,0.0,83,0.00,,,0.00,Wunderground v.1.15,2013-08-26 04:45:00,
2013-08-26 00:50:00,65.9,60.6,30.28,South,184,0.0,0.0,83,0.00,,,0.00,Wunderground v.1.15,2013-08-26 04:50:00,
2013-08-26 00:55:00,65.9,60.6,30.28,South,184,0.0,0.0,83,0.00,,,0.00,Wunderground v.1.15,2013-08-26 04:55:00,
2013-08-26 01:00:00,65.8,60.5,30.28,South,184,0.0,0.0,83,0.00,,,0.00,Wunderground v.1.15,2013-08-26 05:00:00,
2013-08-26 01:05:00,65.7,60.4,30.28,South,184,0.0,2.0,83,0.00,,,0.00,Wunderground v.1.15,2013-08-26 05:05:00,
2013-08-26 01:10:00,65.3,60.0,30.28,South,184,0.0,2.0,83,0.00,,,0.00,Wunderground v.1.15,2013-08-26 05:10:00,
2013-08-26 01:15:00,65.0,60.0,30.28,South,184,0.0,2.0,84,0.00,,,0.00,Wunderground v.1.15,2013-08-26 05:15:00,
2013-08-26 01:21:00,64.7,60.1,30.28,South,184,0.0,2.0,85,0.00,,,0.00,Wunderground v.1.15,2013-08-26 05:21:00,
2013-08-26 01:26:00,64.5,59.9,30.28,South,184,0.0,2.0,85,0.00,,,0.00,Wunderground v.1.15,2013-08-26 05:26:00,
2013-08-26 01:32:00,64.3,59.7,30.28,South,184,0.0,2.0,85,0.00,,,0.00,Wunderground v.1.15,2013-08-26 05:32:00,
2013-08-26 01:38:00,64.0,59.7,30.27,South,184,0.0,2.0,86,0.00,,,0.00,Wunderground v.1.15,2013-08-26 05:38:00,
2013-08-26 01:43:00,63.9,59.6,30.27,South,184,0.0,2.0,86,0.00,,,0.00,Wunderground v.1.15,2013-08-26 05:43:00,
2013-08-26 01:48:00,63.8,59.5,30.27,South,184,0.0,2.0,86,0.00,,,0.00,Wunderground v.1.15,2013-08-26 05:48:00,
2013-08-26 01:53:00,63.8,59.9,30.27,South,184,0.0,2.0,87,0.00,,,0.00,Wunderground v.1.15,2013-08-26 05:53:00,
2013-08-26 01:59:00,63.7,59.8,30.26,South,184,0.0,2.0,87,0.00,,,0.00,Wunderground v.1.15,2013-08-26 05:59:00,
2013-08-26 02:04:00,63.7,59.8,30.26,South,184,0.0,2.0,87,0.00,,,0.00,Wunderground v.1.15,2013-08-26 06:04:00,
2013-08-26 02:10:00,63.7,59.8,30.26,South,184,0.0,2.0,87,0.00,,,0.00,Wunderground v.1.15,2013-08-26 06:10:00,
2013-08-26 02:15:00,63.7,59.8,30.25,South,184,0.0,2.0,87,0.00,,,0.00,Wunderground v.1.15,2013-08-26 06:15:00,
2013-08-26 02:21:00,63.8,59.9,30.26,South,184,0.0,2.0,87,0.00,,,0.00,Wunderground v.1.15,2013-08-26 06:21:00,
2013-08-26 02:27:00,63.9,59.6,30.25,South,184,0.0,2.0,86,0.00,,,0.00,Wunderground v.1.15,2013-08-26 06:27:00,
2013-08-26 02:32:00,63.9,59.6,30.25,South,184,0.0,2.0,86,0.00,,,0.00,Wunderground v.1.15,2013-08-26 06:32:00,
2013-08-26 02:38:00,63.9,59.6,30.25,South,184,0.0,2.0,86,0.00,,,0.00,Wunderground v.1.15,2013-08-26 06:38:00,
2013-08-26 02:44:00,63.9,59.6,30.25,South,184,0.0,2.0,86,0.00,,,0.00,Wunderground v.1.15,2013-08-26 06:44:00,
2013-08-26 02:50:00,64.0,59.7,30.25,South,184,0.0,2.0,86,0.00,,,0.00,Wunderground v.1.15,2013-08-26 06:50:00,
2013-08-26 02:55:00,64.1,59.5,30.25,South,184,0.0,2.0,85,0.00,,,0.00,Wunderground v.1.15,2013-08-26 06:55:00,
2013-08-26 03:01:00,64.2,59.6,30.25,South,184,0.0,2.0,85,0.00,,,0.00,Wunderground v.1.15,2013-08-26 07:01:00,
2013-08-26 03:07:00,64.2,59.6,30.25,South,184,0.0,2.0,85,0.00,,,0.00,Wunderground v.1.15,2013-08-26 07:07:00,
2013-08-26 03:13:00,64.2,59.6,30.25,South,184,0.0,2.0,85,0.00,,,0.00,Wunderground v.1.15,2013-08-26 07:13:00,
2013-08-26 03:18:00,64.2,59.6,30.25,South,184,0.0,2.0,85,0.00,,,0.00,Wunderground v.1.15,2013-08-26 07:18:00,
2013-08-26 03:24:00,64.1,59.5,30.24,South,184,0.0,2.0,85,0.00,,,0.00,Wunderground v.1.15,2013-08-26 07:24:00,
2013-08-26 03:30:00,64.0,59.4,30.24,South,184,0.0,2.0,85,0.00,,,0.00,Wunderground v.1.15,2013-08-26 07:30:00,
2013-08-26 03:35:00,63.9,59.3,30.24,South,184,0.0,2.0,85,0.00,,,0.00,Wunderground v.1.15,2013-08-26 07:35:00,
2013-08-26 03:41:00,63.8,59.2,30.24,South,184,0.0,2.0,85,0.00,,,0.00,Wunderground v.1.15,2013-08-26 07:41:00,
2013-08-26 03:46:00,63.7,59.4,30.23,South,184,0.0,2.0,86,0.00,,,0.00,Wunderground v.1.15,2013-08-26 07:46:00,
2013-08-26 03:52:00,63.7,59.4,30.24,South,184,0.0,2.0,86,0.00,,,0.00,Wunderground v.1.15,2013-08-26 07:52:00,
2013-08-26 03:58:00,63.7,59.1,30.24,South,184,0.0,2.0,85,0.00,,,0.00,Wunderground v.1.15,2013-08-26 07:58:00,
2013-08-26 04:04:00,63.8,59.2,30.24,South,184,0.0,2.0,85,0.00,,,0.00,Wunderground v.1.15,2013-08-26 08:04:00,
2013-08-26 04:10:00,63.8,59.2,30.23,South,184,0.0,2.0,85,0.00,,,0.00,Wunderground v.1.15,2013-08-26 08:10:00,
2013-08-26 04:15:00,63.7,59.1,30.24,South,184,0.0,2.0,85,0.00,,,0.00,Wunderground v.1.15,2013-08-26 08:15:00,
2013-08-26 04:21:00,63.7,59.1,30.24,South,184,0.0,2.0,85,0.00,,,0.00,Wunderground v.1.15,2013-08-26 08:21:00,
2013-08-26 04:27:00,63.7,59.1,30.23,South,184,0.0,2.0,85,0.00,,,0.00,Wunderground v.1.15,2013-08-26 08:27:00,
2013-08-26 04:33:00,63.7,59.1,30.23,South,184,0.0,2.0,85,0.00,,,0.00,Wunderground v.1.15,2013-08-26 08:33:00,
2013-08-26 04:39:00,63.6,59.0,30.24,South,184,0.0,2.0,85,0.00,,,0.00,Wunderground v.1.15,2013-08-26 08:39:00,
2013-08-26 04:45:00,63.5,58.9,30.24,South,184,0.0,2.0,85,0.00,,,0.00,Wunderground v.1.15,2013-08-26 08:45:00,
2013-08-26 04:51:00,63.5,58.9,30.24,South,184,0.0,2.0,85,0.00,,,0.00,Wunderground v.1.15,2013-08-26 08:51:00,
2013-08-26 04:56:00,63.4,58.8,30.24,South,184,0.0,2.0,85,0.00,,,0.00,Wunderground v.1.15,2013-08-26 08:56:00,
2013-08-26 05:02:00,63.2,58.9,30.25,South,184,0.0,2.0,86,0.00,,,0.00,Wunderground v.1.15,2013-08-26 09:02:00,
2013-08-26 05:08:00,63.1,58.8,30.24,South,184,0.0,2.0,86,0.00,,,0.00,Wunderground v.1.15,2013-08-26 09:08:00,
2013-08-26 05:13:00,62.9,58.6,30.25,South,184,0.0,2.0,86,0.00,,,0.00,Wunderground v.1.15,2013-08-26 09:13:00,
2013-08-26 05:19:00,62.8,58.9,30.24,South,184,0.0,2.0,87,0.00,,,0.00,Wunderground v.1.15,2013-08-26 09:19:00,
2013-08-26 05:25:00,62.9,59.0,30.24,South,184,0.0,2.0,87,0.00,,,0.00,Wunderground v.1.15,2013-08-26 09:25:00,
2013-08-26 05:31:00,62.9,59.0,30.24,South,184,0.0,2.0,87,0.00,,,0.00,Wunderground v.1.15,2013-08-26 09:31:00,
2013-08-26 05:36:00,63.0,59.1,30.24,South,184,0.0,2.0,87,0.00,,,0.00,Wunderground v.1.15,2013-08-26 09:36:00,
2013-08-26 05:42:00,63.2,58.9,30.24,South,184,0.0,2.0,86,0.00,,,0.00,Wunderground v.1.15,2013-08-26 09:42:00,
2013-08-26 05:48:00,63.4,59.1,30.24,South,184,0.0,2.0,86,0.00,,,0.00,Wunderground v.1.15,2013-08-26 09:48:00,
2013-08-26 05:53:00,63.5,59.2,30.24,South,184,0.0,2.0,86,0.00,,,0.00,Wunderground v.1.15,2013-08-26 09:53:00,
2013-08-26 05:59:00,63.5,59.2,30.24,South,184,0.0,2.0,86,0.00,,,0.00,Wunderground v.1.15,2013-08-26 09:59:00,
2013-08-26 06:04:00,63.6,59.3,30.24,South,184,0.0,0.0,86,0.00,,,0.00,Wunderground v.1.15,2013-08-26 10:04:00,
2013-08-26 06:09:00,63.6,59.0,30.25,South,184,0.0,0.0,85,0.00,,,0.00,Wunderground v.1.15,2013-08-26 10:09:00,
2013-08-26 06:15:00,63.4,59.1,30.25,South,184,0.0,0.0,86,0.00,,,0.00,Wunderground v.1.15,2013-08-26 10:15:00,
2013-08-26 06:21:00,63.3,59.0,30.25,South,184,0.0,0.0,86,0.00,,,0.00,Wunderground v.1.15,2013-08-26 10:21:00,
2013-08-26 06:26:00,63.0,58.7,30.25,South,184,0.0,0.0,86,0.00,,,0.00,Wunderground v.1.15,2013-08-26 10:26:00,
2013-08-26 06:32:00,62.8,58.9,30.25,South,184,0.0,0.0,87,0.00,,,0.00,Wunderground v.1.15,2013-08-26 10:32:00,
2013-08-26 06:38:00,62.5,58.6,30.25,South,184,0.0,0.0,87,0.00,,,0.00,Wunderground v.1.15,2013-08-26 10:38:00,
2013-08-26 06:43:00,62.2,58.6,30.25,South,184,0.0,0.0,88,0.00,,,0.00,Wunderground v.1.15,2013-08-26 10:43:00,
2013-08-26 06:49:00,62.0,58.4,30.25,South,184,0.0,0.0,88,0.00,,,0.00,Wunderground v.1.15,2013-08-26 10:49:00,
2013-08-26 06:55:00,61.7,58.4,30.25,South,184,0.0,0.0,89,0.00,,,0.00,Wunderground v.1.15,2013-08-26 10:55:00,
2013-08-26 07:01:00,61.4,58.1,30.25,South,184,0.0,3.0,89,0.00,,,0.00,Wunderground v.1.15,2013-08-26 11:01:00,
2013-08-26 07:06:00,61.3,58.3,30.25,South,184,0.0,3.0,90,0.00,,,0.00,Wunderground v.1.15,2013-08-26 11:06:00,
2013-08-26 07:12:00,61.2,58.2,30.25,South,184,0.0,3.0,90,0.00,,,0.00,Wunderground v.1.15,2013-08-26 11:12:00,
2013-08-26 07:18:00,61.2,58.6,30.25,South,184,0.0,3.0,91,0.00,,,0.00,Wunderground v.1.15,2013-08-26 11:18:00,
2013-08-26 07:23:00,61.2,58.6,30.26,South,184,0.0,3.0,91,0.00,,,0.00,Wunderground v.1.15,2013-08-26 11:23:00,
2013-08-26 07:29:00,61.3,58.7,30.25,South,184,0.0,3.0,91,0.00,,,0.00,Wunderground v.1.15,2013-08-26 11:29:00,
2013-08-26 07:35:00,61.4,59.1,30.25,South,184,0.0,3.0,92,0.00,,,0.00,Wunderground v.1.15,2013-08-26 11:35:00,
2013-08-26 07:40:00,61.6,59.3,30.25,South,184,0.0,3.0,92,0.00,,,0.00,Wunderground v.1.15,2013-08-26 11:40:00,
2013-08-26 07:47:00,61.8,59.5,30.25,South,184,0.0,3.0,92,0.00,,,0.00,Wunderground v.1.15,2013-08-26 11:47:00,
2013-08-26 07:53:00,62.1,59.7,30.26,South,184,0.0,3.0,92,0.00,,,0.00,Wunderground v.1.15,2013-08-26 11:53:00,
2013-08-26 07:59:00,62.3,59.9,30.25,South,184,0.0,3.0,92,0.00,,,0.00,Wunderground v.1.15,2013-08-26 11:59:00,
2013-08-26 08:04:00,62.6,60.2,30.25,South,184,0.0,3.0,92,0.00,,,0.00,Wunderground v.1.15,2013-08-26 12:04:00,
2013-08-26 08:10:00,62.9,60.5,30.25,South,184,0.0,3.0,92,0.00,,,0.00,Wunderground v.1.15,2013-08-26 12:10:00,
2013-08-26 08:15:00,63.3,60.9,30.26,South,184,0.0,3.0,92,0.00,,,0.00,Wunderground v.1.15,2013-08-26 12:15:00,
2013-08-26 08:21:00,63.7,61.3,30.26,South,184,0.0,3.0,92,0.00,,,0.00,Wunderground v.1.15,2013-08-26 12:21:00,
2013-08-26 08:27:00,64.1,61.7,30.26,South,184,0.0,3.0,92,0.00,,,0.00,Wunderground v.1.15,2013-08-26 12:27:00,
2013-08-26 08:32:00,64.5,61.5,30.26,South,184,0.0,3.0,90,0.00,,,0.00,Wunderground v.1.15,2013-08-26 12:32:00,
2013-08-26 08:38:00,64.9,61.9,30.26,South,184,0.0,3.0,90,0.00,,,0.00,Wunderground v.1.15,2013-08-26 12:38:00,
2013-08-26 08:44:00,65.4,62.1,30.25,South,184,0.0,3.0,89,0.00,,,0.00,Wunderground v.1.15,2013-08-26 12:44:00,
2013-08-26 08:50:00,65.8,62.1,30.25,South,184,0.0,3.0,88,0.00,,,0.00,Wunderground v.1.15,2013-08-26 12:50:00,
2013-08-26 08:55:00,66.3,62.6,30.25,South,184,0.0,3.0,88,0.00,,,0.00,Wunderground v.1.15,2013-08-26 12:55:00,
2013-08-26 09:00:00,66.7,63.0,30.24,South,184,0.0,0.0,88,0.00,,,0.00,Wunderground v.1.15,2013-08-26 13:00:00,
2013-08-26 09:06:00,67.2,63.2,30.24,South,184,0.0,1.0,87,0.00,,,0.00,Wunderground v.1.15,2013-08-26 13:06:00,
2013-08-26 09:12:00,68.0,63.7,30.24,South,186,1.0,2.0,86,0.00,,,0.00,Wunderground v.1.15,2013-08-26 13:12:00,
2013-08-26 09:17:00,69.0,63.6,30.24,SSW,210,2.0,4.0,83,0.00,,,0.00,Wunderground v.1.15,2013-08-26 13:17:00,
2013-08-26 09:23:00,70.1,64.0,30.24,SSW,202,3.0,4.0,81,0.00,,,0.00,Wunderground v.1.15,2013-08-26 13:23:00,
2013-08-26 09:29:00,71.1,64.3,30.24,WSW,246,3.0,3.0,79,0.00,,,0.00,Wunderground v.1.15,2013-08-26 13:29:00,
2013-08-26 09:35:00,71.7,64.1,30.23,SW,226,3.0,5.0,77,0.00,,,0.00,Wunderground v.1.15,2013-08-26 13:35:00,
2013-08-26 09:41:00,72.3,63.9,30.23,SSW,209,4.0,6.0,75,0.00,,,0.00,Wunderground v.1.15,2013-08-26 13:41:00,
2013-08-26 09:47:00,72.6,64.6,30.23,South,188,4.0,6.0,76,0.00,,,0.00,Wunderground v.1.15,2013-08-26 13:47:00,
2013-08-26 09:52:00,73.0,64.6,30.23,SW,227,3.0,7.0,75,0.00,,,0.00,Wunderground v.1.15,2013-08-26 13:52:00,
2013-08-26 09:58:00,73.5,65.1,30.24,SSW,205,4.0,7.0,75,0.00,,,0.00,Wunderground v.1.15,2013-08-26 13:58:00,
2013-08-26 10:03:00,74.0,66.0,30.23,SSW,204,2.0,3.0,76,0.00,,,0.00,Wunderground v.1.15,2013-08-26 14:03:00,
2013-08-26 10:09:00,74.5,65.3,30.23,SSW,195,3.0,7.0,73,0.00,,,0.00,Wunderground v.1.15,2013-08-26 14:09:00,
2013-08-26 10:15:00,74.9,65.7,30.24,SW,221,4.0,7.0,73,0.00,,,0.00,Wunderground v.1.15,2013-08-26 14:15:00,
2013-08-26 10:21:00,75.2,65.9,30.23,SSW,200,4.0,7.0,73,0.00,,,0.00,Wunderground v.1.15,2013-08-26 14:21:00,
2013-08-26 10:26:00,75.5,65.4,30.24,SW,235,4.0,7.0,71,0.00,,,0.00,Wunderground v.1.15,2013-08-26 14:26:00,
2013-08-26 10:32:00,75.8,65.7,30.23,SSW,200,4.0,6.0,71,0.00,,,0.00,Wunderground v.1.15,2013-08-26 14:32:00,
2013-08-26 10:38:00,76.2,65.3,30.23,SW,223,4.0,9.0,69,0.00,,,0.00,Wunderground v.1.15,2013-08-26 14:38:00,
2013-08-26 10:43:00,76.5,65.6,30.24,WSW,238,4.0,4.0,69,0.00,,,0.00,Wunderground v.1.15,2013-08-26 14:43:00,
2013-08-26 10:49:00,76.8,65.9,30.24,West,281,4.0,5.0,69,0.00,,,0.00,Wunderground v.1.15,2013-08-26 14:49:00,
2013-08-26 10:55:00,77.0,65.2,30.24,SW,217,4.0,8.0,67,0.00,,,0.00,Wunderground v.1.15,2013-08-26 14:55:00,
2013-08-26 11:00:00,77.4,65.6,30.24,SSW,197,4.0,7.0,67,0.00,,,0.00,Wunderground v.1.15,2013-08-26 15:00:00,
2013-08-26 11:06:00,77.6,65.3,30.23,SSW,192,4.0,7.0,66,0.00,,,0.00,Wunderground v.1.15,2013-08-26 15:06:00,
2013-08-26 11:12:00,77.9,65.2,30.24,SW,231,5.0,6.0,65,0.00,,,0.00,Wunderground v.1.15,2013-08-26 15:12:00,
2013-08-26 11:18:00,78.0,64.4,30.23,WSW,248,6.0,7.0,63,0.00,,,0.00,Wunderground v.1.15,2013-08-26 15:18:00,
2013-08-26 11:23:00,78.2,64.6,30.23,WSW,245,6.0,8.0,63,0.00,,,0.00,Wunderground v.1.15,2013-08-26 15:23:00,
2013-08-26 11:28:00,78.6,65.8,30.23,WSW,244,5.0,8.0,65,0.00,,,0.00,Wunderground v.1.15,2013-08-26 15:28:00,
2013-08-26 11:34:00,78.9,65.2,30.23,West,279,7.0,11.0,63,0.00,,,0.00,Wunderground v.1.15,2013-08-26 15:34:00,
2013-08-26 11:40:00,79.1,65.4,30.22,SSW,201,7.0,12.0,63,0.00,,,0.00,Wunderground v.1.15,2013-08-26 15:40:00,
2013-08-26 11:45:00,79.2,65.5,30.22,West,268,7.0,12.0,63,0.00,,,0.00,Wunderground v.1.15,2013-08-26 15:45:00,
2013-08-26 11:51:00,79.6,65.0,30.22,West,273,6.0,9.0,61,0.00,,,0.00,Wunderground v.1.15,2013-08-26 15:51:00,
2013-08-26 11:57:00,80.0,65.3,30.21,WSW,254,7.0,13.0,61,0.00,,,0.00,Wunderground v.1.15,2013-08-26 15:57:00,
2013-08-26 12:03:00,80.3,65.6,30.21,SSW,206,7.0,10.0,61,0.00,,,0.00,Wunderground v.1.15,2013-08-26 16:03:00,
2013-08-26 12:08:00,80.7,65.0,30.21,WSW,250,7.0,12.0,59,0.00,,,0.00,Wunderground v.1.15,2013-08-26 16:08:00,
2013-08-26 12:14:00,80.9,64.7,30.20,West,269,8.0,12.0,58,0.00,,,0.00,Wunderground v.1.15,2013-08-26 16:14:00,
2013-08-26 12:20:00,81.1,66.4,30.20,SW,222,7.0,7.0,61,0.00,,,0.00,Wunderground v.1.15,2013-08-26 16:20:00,
2013-08-26 12:26:00,81.4,66.2,30.20,SW,219,6.0,10.0,60,0.00,,,0.00,Wunderground v.1.15,2013-08-26 16:26:00,
2013-08-26 12:32:00,81.5,67.2,30.19,WSW,252,5.0,6.0,62,0.00,,,0.00,Wunderground v.1.15,2013-08-26 16:32:00,
2013-08-26 12:38:00,81.7,66.5,30.19,WSW,257,5.0,7.0,60,0.00,,,0.00,Wunderground v.1.15,2013-08-26 16:38:00,
2013-08-26 12:44:00,81.4,66.2,30.19,West,262,5.0,8.0,60,0.00,,,0.00,Wunderground v.1.15,2013-08-26 16:44:00,
2013-08-26 12:49:00,81.4,66.7,30.19,West,273,5.0,8.0,61,0.00,,,0.00,Wunderground v.1.15,2013-08-26 16:49:00,
2013-08-26 12:55:00,81.8,67.5,30.18,West,263,6.0,10.0,62,0.00,,,0.00,Wunderground v.1.15,2013-08-26 16:55:00,
2013-08-26 13:01:00,81.9,66.6,30.18,South,191,6.0,15.0,60,0.00,,,0.00,Wunderground v.1.15,2013-08-26 17:01:00,
2013-08-26 13:07:00,81.4,66.2,30.17,SSW,201,6.0,15.0,60,0.00,,,0.00,Wunderground v.1.15,2013-08-26 17:07:00,
2013-08-26 13:12:00,81.2,66.5,30.17,SSW,209,4.0,15.0,61,0.00,,,0.00,Wunderground v.1.15,2013-08-26 17:12:00,
2013-08-26 13:18:00,81.3,68.0,30.17,SSW,204,3.0,15.0,64,0.00,,,0.00,Wunderground v.1.15,2013-08-26 17:18:00,
2013-08-26 13:23:00,81.5,66.3,30.17,WSW,242,4.0,15.0,60,0.00,,,0.00,Wunderground v.1.15,2013-08-26 17:23:00,
2013-08-26 13:29:00,81.6,67.3,30.17,SW,229,5.0,15.0,62,0.00,,,0.00,Wunderground v.1.15,2013-08-26 17:29:00,
2013-08-26 13:35:00,81.9,66.6,30.17,South,184,4.0,15.0,60,0.00,,,0.00,Wunderground v.1.15,2013-08-26 17:35:00,
2013-08-26 13:40:00,82.3,66.5,30.16,SW,218,4.0,15.0,59,0.00,,,0.00,Wunderground v.1.15,2013-08-26 17:40:00,
2013-08-26 13:46:00,82.5,66.2,30.16,SSW,207,5.0,15.0,58,0.00,,,0.00,Wunderground v.1.15,2013-08-26 17:46:00,
2013-08-26 13:52:00,82.5,67.2,30.15,SSW,213,5.0,15.0,60,0.00,,,0.00,Wunderground v.1.15,2013-08-26 17:52:00,
2013-08-26 13:58:00,82.8,66.5,30.15,SW,215,5.0,15.0,58,0.00,,,0.00,Wunderground v.1.15,2013-08-26 17:58:00,
2013-08-26 14:03:00,83.0,66.2,30.15,SSW,209,6.0,15.0,57,0.00,,,0.00,Wunderground v.1.15,2013-08-26 18:03:00,
2013-08-26 14:09:00,82.9,66.1,30.15,SW,227,6.0,15.0,57,0.00,,,0.00,Wunderground v.1.15,2013-08-26 18:09:00,
2013-08-26 14:15:00,82.8,65.5,30.15,SW,231,6.0,15.0,56,0.00,,,0.00,Wunderground v.1.15,2013-08-26 18:15:00,
2013-08-26 14:20:00,82.7,65.4,30.15,SSW,202,6.0,15.0,56,0.00,,,0.00,Wunderground v.1.15,2013-08-26 18:20:00,
2013-08-26 14:26:00,82.6,66.3,30.14,South,186,7.0,15.0,58,0.00,,,0.00,Wunderground v.1.15,2013-08-26 18:26:00,
2013-08-26 14:32:00,82.5,66.7,30.14,SW,219,6.0,15.0,59,0.00,,,0.00,Wunderground v.1.15,2013-08-26 18:32:00,
2013-08-26 14:38:00,82.5,66.7,30.14,WSW,244,5.0,15.0,59,0.00,,,0.00,Wunderground v.1.15,2013-08-26 18:38:00,
2013-08-26 14:44:00,82.4,65.1,30.14,South,190,7.0,15.0,56,0.00,,,0.00,Wunderground v.1.15,2013-08-26 18:44:00,
2013-08-26 14:49:00,82.7,66.4,30.13,SW,229,6.0,15.0,58,0.00,,,0.00,Wunderground v.1.15,2013-08-26 18:49:00,
2013-08-26 14:55:00,82.7,64.4,30.13,South,184,6.0,15.0,54,0.00,,,0.00,Wunderground v.1.15,2013-08-26 18:55:00,
2013-08-26 15:01:00,82.6,64.8,30.13,WSW,257,7.0,7.0,55,0.00,,,0.00,Wunderground v.1.15,2013-08-26 19:01:00,
2013-08-26 15:06:00,82.7,65.9,30.12,WSW,242,7.0,7.0,57,0.00,,,0.00,Wunderground v.1.15,2013-08-26 19:06:00,
2013-08-26 15:11:00,83.0,65.7,30.12,SW,224,5.0,5.0,56,0.00,,,0.00,Wunderground v.1.15,2013-08-26 19:11:00,
2013-08-26 15:17:00,83.3,66.0,30.12,SSW,208,5.0,11.0,56,0.00,,,0.00,Wunderground v.1.15,2013-08-26 19:17:00,
2013-08-26 15:23:00,83.4,66.1,30.12,SSW,200,7.0,7.0,56,0.00,,,0.00,Wunderground v.1.15,2013-08-26 19:23:00,
2013-08-26 15:29:00,83.4,65.0,30.11,SSW,204,8.0,12.0,54,0.00,,,0.00,Wunderground v.1.15,2013-08-26 19:29:00,
2013-08-26 15:35:00,83.4,67.6,30.11,WSW,253,6.0,11.0,59,0.00,,,0.00,Wunderground v.1.15,2013-08-26 19:35:00,
2013-08-26 15:41:00,83.6,66.2,30.11,West,267,5.0,6.0,56,0.00,,,0.00,Wunderground v.1.15,2013-08-26 19:41:00,
2013-08-26 15:46:00,83.5,65.6,30.10,SW,218,5.0,7.0,55,0.00,,,0.00,Wunderground v.1.15,2013-08-26 19:46:00,
2013-08-26 15:52:00,83.5,68.2,30.10,SW,219,5.0,6.0,60,0.00,,,0.00,Wunderground v.1.15,2013-08-26 19:52:00,
2013-08-26 15:58:00,83.3,67.0,30.09,SSW,205,5.0,7.0,58,0.00,,,0.00,Wunderground v.1.15,2013-08-26 19:58:00,
2013-08-26 16:03:00,82.8,66.0,30.09,SSW,207,5.0,15.0,57,0.00,,,0.00,Wunderground v.1.15,2013-08-26 20:03:00,
2013-08-26 16:09:00,82.5,66.7,30.09,SSW,209,6.0,15.0,59,0.00,,,0.00,Wunderground v.1.15,2013-08-26 20:09:00,
2013-08-26 16:15:00,82.3,67.0,30.09,SSE,148,5.0,15.0,60,0.00,,,0.00,Wunderground v.1.15,2013-08-26 20:15:00,
2013-08-26 16:21:00,82.3,67.5,30.09,SW,227,4.0,15.0,61,0.00,,,0.00,Wunderground v.1.15,2013-08-26 20:21:00,
2013-08-26 16:26:00,82.6,68.3,30.09,South,188,5.0,15.0,62,0.00,,,0.00,Wunderground v.1.15,2013-08-26 20:26:00,
2013-08-26 16:32:00,83.0,67.7,30.08,SSW,207,5.0,9.0,60,0.00,,,0.00,Wunderground v.1.15,2013-08-26 20:32:00,
2013-08-26 16:37:00,83.1,67.8,30.09,SSW,205,5.0,15.0,60,0.00,,,0.00,Wunderground v.1.15,2013-08-26 20:37:00,
2013-08-26 16:43:00,83.2,67.4,30.08,WSW,247,4.0,15.0,59,0.00,,,0.00,Wunderground v.1.15,2013-08-26 20:43:00,
2013-08-26 16:49:00,83.2,67.4,30.08,South,188,5.0,15.0,59,0.00,,,0.00,Wunderground v.1.15,2013-08-26 20:49:00,
2013-08-26 16:54:00,83.2,67.9,30.08,SW,225,6.0,15.0,60,0.00,,,0.00,Wunderground v.1.15,2013-08-26 20:54:00,
2013-08-26 17:00:00,83.3,67.5,30.09,SW,222,6.0,15.0,59,0.00,,,0.00,Wunderground v.1.15,2013-08-26 21:00:00,
2013-08-26 17:06:00,83.4,66.1,30.09,SSW,202,6.0,15.0,56,0.00,,,0.00,Wunderground v.1.15,2013-08-26 21:06:00,
2013-08-26 17:12:00,83.3,67.0,30.08,South,180,7.0,15.0,58,0.00,,,0.00,Wunderground v.1.15,2013-08-26 21:12:00,
2013-08-26 17:17:00,83.5,67.2,30.09,WSW,258,6.0,15.0,58,0.00,,,0.00,Wunderground v.1.15,2013-08-26 21:17:00,
2013-08-26 17:23:00,83.8,66.4,30.08,SSW,212,6.0,15.0,56,0.00,,,0.00,Wunderground v.1.15,2013-08-26 21:23:00,
2013-08-26 17:29:00,83.7,66.3,30.08,SSW,200,7.0,15.0,56,0.00,,,0.00,Wunderground v.1.15,2013-08-26 21:29:00,
2013-08-26 17:35:00,83.7,66.3,30.07,SSW,194,7.0,15.0,56,0.00,,,0.00,Wunderground v.1.15,2013-08-26 21:35:00,
2013-08-26 17:41:00,83.6,66.2,30.07,SW,230,7.0,10.0,56,0.00,,,0.00,Wunderground v.1.15,2013-08-26 21:41:00,
2013-08-26 17:47:00,83.5,66.7,30.07,SSE,162,7.0,15.0,57,0.00,,,0.00,Wunderground v.1.15,2013-08-26 21:47:00,
2013-08-26 17:53:00,83.6,66.2,30.07,SW,217,6.0,15.0,56,0.00,,,0.00,Wunderground v.1.15,2013-08-26 21:53:00,
2013-08-26 17:59:00,83.5,66.2,30.07,WSW,252,8.0,15.0,56,0.00,,,0.00,Wunderground v.1.15,2013-08-26 21:59:00,
2013-08-26 18:04:00,83.4,65.5,30.07,SW,214,7.0,10.0,55,0.00,,,0.00,Wunderground v.1.15,2013-08-26 22:04:00,
2013-08-26 18:09:00,83.3,64.9,30.07,WSW,242,6.0,13.0,54,0.00,,,0.00,Wunderground v.1.15,2013-08-26 22:09:00,
2013-08-26 18:15:00,83.3,66.0,30.06,SSW,202,7.0,12.0,56,0.00,,,0.00,Wunderground v.1.15,2013-08-26 22:15:00,
2013-08-26 18:20:00,83.3,66.0,30.06,WSW,245,5.0,5.0,56,0.00,,,0.00,Wunderground v.1.15,2013-08-26 22:20:00,
2013-08-26 18:26:00,83.1,65.3,30.06,SW,229,4.0,9.0,55,0.00,,,0.00,Wunderground v.1.15,2013-08-26 22:26:00,
2013-08-26 18:32:00,82.7,65.4,30.07,South,182,6.0,6.0,56,0.00,,,0.00,Wunderground v.1.15,2013-08-26 22:32:00,
2013-08-26 18:37:00,82.3,65.5,30.07,South,182,6.0,10.0,57,0.00,,,0.00,Wunderground v.1.15,2013-08-26 22:37:00,
2013-08-26 18:43:00,81.9,65.7,30.07,SSW,211,6.0,10.0,58,0.00,,,0.00,Wunderground v.1.15,2013-08-26 22:43:00,
2013-08-26 18:49:00,81.6,65.9,30.06,WSW,245,5.0,10.0,59,0.00,,,0.00,Wunderground v.1.15,2013-08-26 22:49:00,
2013-08-26 18:55:00,81.4,65.7,30.07,SSW,196,4.0,4.0,59,0.00,,,0.00,Wunderground v.1.15,2013-08-26 22:55:00,
2013-08-26 19:00:00,81.2,65.5,30.07,SSW,209,5.0,9.0,59,0.00,,,0.00,Wunderground v.1.15,2013-08-26 23:00:00,
2013-08-26 19:06:00,81.0,65.8,30.08,SW,218,5.0,14.0,60,0.00,,,0.00,Wunderground v.1.15,2013-08-26 23:06:00,
2013-08-26 19:12:00,80.9,66.2,30.08,South,176,5.0,14.0,61,0.00,,,0.00,Wunderground v.1.15,2013-08-26 23:12:00,
2013-08-26 19:17:00,80.8,66.6,30.07,SSW,198,6.0,14.0,62,0.00,,,0.00,Wunderground v.1.15,2013-08-26 23:17:00,
2013-08-26 19:23:00,80.7,66.9,30.07,SSW,208,6.0,15.0,63,0.00,,,0.00,Wunderground v.1.15,2013-08-26 23:23:00,
2013-08-26 19:29:00,80.7,67.4,30.07,South,190,6.0,15.0,64,0.00,,,0.00,Wunderground v.1.15,2013-08-26 23:29:00,
2013-08-26 19:35:00,80.5,67.6,30.07,South,188,5.0,14.0,65,0.00,,,0.00,Wunderground v.1.15,2013-08-26 23:35:00,
2013-08-26 19:40:00,80.4,68.0,30.07,South,189,4.0,14.0,66,0.00,,,0.00,Wunderground v.1.15,2013-08-26 23:40:00,
2013-08-26 19:46:00,80.2,67.8,30.07,WSW,237,4.0,14.0,66,0.00,,,0.00,Wunderground v.1.15,2013-08-26 23:46:00,
2013-08-26 19:52:00,80.1,67.7,30.07,SW,223,4.0,14.0,66,0.00,,,0.00,Wunderground v.1.15,2013-08-26 23:52:00,
2013-08-26 19:58:00,80.0,67.6,30.07,South,171,4.0,14.0,66,0.00,,,0.00,Wunderground v.1.15,2013-08-26 23:58:00,
2013-08-26 20:04:00,79.9,68.0,30.07,SW,221,4.0,14.0,67,0.00,,,0.00,Wunderground v.1.15,2013-08-27 00:04:00,
2013-08-26 20:10:00,79.9,68.0,30.07,SSW,194,4.0,4.0,67,0.00,,,0.00,Wunderground v.1.15,2013-08-27 00:10:00,
2013-08-26 20:16:00,79.8,67.9,30.07,SSW,206,4.0,14.0,67,0.00,,,0.00,Wunderground v.1.15,2013-08-27 00:16:00,
2013-08-26 20:22:00,79.8,69.1,30.07,WSW,252,3.0,14.0,70,0.00,,,0.01,Wunderground v.1.15,2013-08-27 00:22:00,
2013-08-26 20:27:00,79.2,69.4,30.07,WSW,238,1.0,14.0,72,0.00,,,0.01,Wunderground v.1.15,2013-08-27 00:27:00,
2013-08-26 20:33:00,78.3,68.9,30.07,SSW,212,2.0,14.0,73,0.00,,,0.01,Wunderground v.1.15,2013-08-27 00:33:00,
2013-08-26 20:38:00,77.4,68.9,30.07,SSW,200,3.0,14.0,75,0.00,,,0.01,Wunderground v.1.15,2013-08-27 00:38:00,
2013-08-26 20:44:00,76.7,68.9,30.07,South,190,2.0,14.0,77,0.00,,,0.01,Wunderground v.1.15,2013-08-27 00:44:00,
2013-08-26 20:50:00,76.2,69.2,30.07,South,190,1.0,14.0,79,0.00,,,0.01,Wunderground v.1.15,2013-08-27 00:50:00,
2013-08-26 20:56:00,75.8,68.8,30.07,SSW,199,1.0,14.0,79,0.00,,,0.01,Wunderground v.1.15,2013-08-27 00:56:00,
2013-08-26 21:01:00,75.8,68.8,30.07,SSW,200,2.0,3.0,79,0.00,,,0.01,Wunderground v.1.15,2013-08-27 01:01:00,
2013-08-26 21:06:00,75.7,68.7,30.07,SSW,205,2.0,4.0,79,0.00,,,0.01,Wunderground v.1.15,2013-08-27 01:06:00,
2013-08-26 21:12:00,75.8,68.8,30.07,SSW,205,1.0,1.0,79,0.00,,,0.01,Wunderground v.1.15,2013-08-27 01:12:00,
2013-08-26 21:17:00,75.8,69.2,30.07,SSW,204,1.0,5.0,80,0.00,,,0.01,Wunderground v.1.15,2013-08-27 01:17:00,
2013-08-26 21:23:00,75.9,68.9,30.07,SSW,198,2.0,3.0,79,0.00,,,0.01,Wunderground v.1.15,2013-08-27 01:23:00,
2013-08-26 21:29:00,76.1,68.7,30.08,SSW,207,2.0,5.0,78,0.00,,,0.01,Wunderground v.1.15,2013-08-27 01:29:00,
2013-08-26 21:34:00,76.2,69.2,30.07,SSW,207,1.0,2.0,79,0.00,,,0.01,Wunderground v.1.15,2013-08-27 01:34:00,
2013-08-26 21:40:00,76.3,68.9,30.07,SSW,192,1.0,3.0,78,0.00,,,0.01,Wunderground v.1.15,2013-08-27 01:40:00,
2013-08-26 21:46:00,76.5,68.7,30.07,SSW,208,2.0,5.0,77,0.00,,,0.01,Wunderground v.1.15,2013-08-27 01:46:00,
2013-08-26 21:52:00,76.7,68.6,30.07,West,269,2.0,3.0,76,0.00,,,0.01,Wunderground v.1.15,2013-08-27 01:52:00,
2013-08-26 21:58:00,77.0,68.9,30.07,SSW,199,2.0,3.0,76,0.00,,,0.01,Wunderground v.1.15,2013-08-27 01:58:00,
2013-08-26 22:04:00,77.2,69.0,30.06,SW,219,2.0,9.0,76,0.00,,,0.01,Wunderground v.1.15,2013-08-27 02:04:00,
2013-08-26 22:09:00,77.2,69.0,30.07,SSW,213,2.0,9.0,76,0.00,,,0.01,Wunderground v.1.15,2013-08-27 02:09:00,
2013-08-26 22:15:00,77.3,69.1,30.06,SSW,201,3.0,9.0,76,0.00,,,0.02,Wunderground v.1.15,2013-08-27 02:15:00,
2013-08-26 22:20:00,77.3,69.1,30.06,SSW,198,3.0,3.0,76,0.00,,,0.02,Wunderground v.1.15,2013-08-27 02:20:00,
2013-08-26 22:26:00,77.3,69.1,30.07,SSW,196,2.0,9.0,76,0.00,,,0.02,Wunderground v.1.15,2013-08-27 02:26:00,
2013-08-26 22:32:00,77.2,69.4,30.07,WSW,253,2.0,9.0,77,0.00,,,0.02,Wunderground v.1.15,2013-08-27 02:32:00,
2013-08-26 22:38:00,77.2,69.4,30.06,WSW,244,3.0,9.0,77,0.00,,,0.02,Wunderground v.1.15,2013-08-27 02:38:00,
2013-08-26 22:43:00,77.2,69.4,30.06,SSW,211,2.0,9.0,77,0.00,,,0.02,Wunderground v.1.15,2013-08-27 02:43:00,
2013-08-26 22:49:00,77.1,69.3,30.06,SW,230,1.0,9.0,77,0.00,,,0.02,Wunderground v.1.15,2013-08-27 02:49:00,
2013-08-26 22:55:00,77.1,69.3,30.06,WSW,246,2.0,9.0,77,0.00,,,0.02,Wunderground v.1.15,2013-08-27 02:55:00,
2013-08-26 23:01:00,77.1,69.3,30.06,SSW,211,2.0,9.0,77,0.00,,,0.02,Wunderground v.1.15,2013-08-27 03:01:00,
2013-08-26 23:07:00,77.2,69.4,30.06,SSW,203,2.0,9.0,77,0.00,,,0.02,Wunderground v.1.15,2013-08-27 03:07:00,
2013-08-26 23:13:00,77.2,69.4,30.06,SW,217,1.0,9.0,77,0.00,,,0.02,Wunderground v.1.15,2013-08-27 03:13:00,
2013-08-26 23:19:00,77.2,69.4,30.06,WSW,244,1.0,9.0,77,0.00,,,0.02,Wunderground v.1.15,2013-08-27 03:19:00,
2013-08-26 23:24:00,77.2,69.0,30.06,SW,225,2.0,9.0,76,0.00,,,0.02,Wunderground v.1.15,2013-08-27 03:24:00,
2013-08-26 23:30:00,77.3,69.1,30.06,WSW,238,4.0,9.0,76,0.00,,,0.02,Wunderground v.1.15,2013-08-27 03:30:00,
2013-08-26 23:36:00,77.4,69.2,30.06,WNW,292,4.0,9.0,76,0.00,,,0.02,Wunderground v.1.15,2013-08-27 03:36:00,
2013-08-26 23:42:00,77.5,69.3,30.06,WSW,248,3.0,9.0,76,0.00,,,0.02,Wunderground v.1.15,2013-08-27 03:42:00,
2013-08-26 23:47:00,77.5,69.3,30.05,SW,215,4.0,9.0,76,0.00,,,0.02,Wunderground v.1.15,2013-08-27 03:47:00,
2013-08-26 23:53:00,77.4,69.2,30.06,SW,221,3.0,9.0,76,0.00,,,0.02,Wunderground v.1.15,2013-08-27 03:53:00,
2013-08-26 23:59:00,77.5,69.3,30.06,West,279,3.0,9.0,76,0.00,,,0.00,Wunderground v.1.15,2013-08-27 03:59:00,